This is the latest recevied weather packets stored in our database for station/object K1RFS. If no packets are shown the sender has not sent any weather packets the latest 10 day(s).
| Time | Temp. | Humidity | Pressure | Rain* | Wind** | Luminosity | Snow |
|---|---|---|---|---|---|---|---|
| 1777669364 | 21.11° C | 20% | 1004.7 hPa | 0 mm | - | 607 W/m² | - |
| 1777669060 | 21.11° C | 21% | 1004.8 hPa | 0 mm | - | 615 W/m² | - |
| 1777668757 | 20° C | 22% | 1004.8 hPa | 0 mm | - | 621 W/m² | - |
| 1777668454 | 18.33° C | 22% | 1004.8 hPa | 0 mm | - | 626 W/m² | - |
| 1777668151 | 18.89° C | 23% | 1004.9 hPa | 0 mm | - | 630 W/m² | - |
| 1777667847 | 18.89° C | 21% | 1005 hPa | 0 mm | - | 634 W/m² | - |
| 1777667545 | 18.33° C | 23% | 1004.9 hPa | 0 mm | - | 641 W/m² | - |
| 1777667241 | 20° C | 21% | 1005 hPa | 0 mm | - | 643 W/m² | - |
| 1777666938 | 18.89° C | 22% | 1005.2 hPa | 0 mm | - | 646 W/m² | - |
| 1777666635 | 18.89° C | 21% | 1005 hPa | 0 mm | - | 649 W/m² | - |
| 1777666332 | 18.89° C | 23% | 1004.8 hPa | 0 mm | - | 651 W/m² | - |
| 1777666029 | 17.78° C | 23% | 1005.2 hPa | 0 mm | - | 655 W/m² | - |
| 1777665726 | 18.33° C | 22% | 1005 hPa | 0 mm | - | 655 W/m² | - |
| 1777665423 | 18.89° C | 21% | 1005.3 hPa | 0 mm | - | 660 W/m² | - |
| 1777665119 | 17.78° C | 24% | 1005.3 hPa | 0 mm | - | 665 W/m² | - |
| 1777664815 | 17.78° C | 22% | 1005 hPa | 0 mm | - | 666 W/m² | - |
| 1777664510 | 17.78° C | 23% | 1005.3 hPa | 0 mm | - | 667 W/m² | - |
| 1777664208 | 17.22° C | 23% | 1005.3 hPa | 0 mm | - | 668 W/m² | - |
| 1777663906 | 17.78° C | 22% | 1005 hPa | 0 mm | - | 669 W/m² | - |
| 1777663603 | 17.22° C | 22% | 1005.4 hPa | 0 mm | - | 670 W/m² | - |
| 1777663300 | 17.22° C | 23% | 1005.4 hPa | 0 mm | - | 672 W/m² | - |
| 1777662998 | 16.67° C | 22% | 1005.4 hPa | 0 mm | - | 671 W/m² | - |
| 1777662695 | 16.67° C | 23% | 1005.6 hPa | 0 mm | - | 669 W/m² | - |
| 1777662392 | 16.11° C | 23% | 1005.5 hPa | 0 mm | - | 668 W/m² | - |
| 1777662092 | 16.67° C | 23% | 1005.5 hPa | 0 mm | - | 667 W/m² | - |
* Rain latest hour (hover to see other rain measurements)
** Current wind speed in m/s (hover to see current wind gust speed)